TimeEST,TemperatureF,Dew PointF,Humidity,Sea Level PressureIn,VisibilityMPH,Wind Direction,Wind SpeedMPH,Gust SpeedMPH,PrecipitationIn,Events,Conditions,WindDirDegrees,DateUTC
12:51 AM,26.1,21.9,84,29.86,-9999.0,WSW,5.8,-,0.01,,Unknown,240,2013-02-24 05:51:00
1:51 AM,26.1,21.9,84,29.86,-9999.0,WSW,9.2,-,0.01,,Unknown,240,2013-02-24 06:51:00
2:51 AM,26.1,21.0,81,29.88,-9999.0,WSW,8.1,-,0.01,,Unknown,250,2013-02-24 07:51:00
3:51 AM,26.1,21.9,84,29.88,-9999.0,WSW,6.9,-,0.01,,Unknown,240,2013-02-24 08:51:00
4:51 AM,26.1,21.9,84,29.88,-9999.0,WSW,8.1,-,0.01,,Unknown,250,2013-02-24 09:51:00
5:51 AM,25.0,21.9,88,29.89,-9999.0,West,9.2,-,0.01,,Unknown,260,2013-02-24 10:51:00
6:51 AM,25.0,21.0,85,29.92,-9999.0,WSW,8.1,-,N/A,,Unknown,250,2013-02-24 11:51:00
7:51 AM,24.1,21.0,88,29.94,-9999.0,WSW,6.9,-,N/A,,Unknown,250,2013-02-24 12:51:00
8:51 AM,26.1,21.0,81,29.94,-9999.0,West,6.9,-,N/A,,Unknown,260,2013-02-24 13:51:00
9:51 AM,28.0,23.0,81,29.96,-9999.0,West,5.8,-,N/A,,Unknown,280,2013-02-24 14:51:00
10:51 AM,30.0,23.0,75,29.97,-9999.0,Variable,6.9,-,N/A,,Unknown,0,2013-02-24 15:51:00
11:51 AM,30.9,24.1,76,29.99,-9999.0,Variable,5.8,-,N/A,,Unknown,0,2013-02-24 16:51:00
12:51 PM,32.0,24.1,73,30.00,-9999.0,WNW,8.1,-,N/A,,Unknown,300,2013-02-24 17:51:00
1:51 PM,34.0,24.1,67,30.00,-9999.0,Variable,5.8,-,N/A,,Unknown,0,2013-02-24 18:51:00
2:51 PM,36.0,24.1,62,30.02,-9999.0,NW,4.6,-,N/A,,Unknown,320,2013-02-24 19:51:00
3:51 PM,36.0,21.0,55,30.04,-9999.0,WNW,5.8,-,N/A,,Unknown,290,2013-02-24 20:51:00
4:51 PM,34.0,19.9,56,30.05,-9999.0,Variable,4.6,-,N/A,,Unknown,0,2013-02-24 21:51:00
5:51 PM,33.1,21.0,61,30.08,-9999.0,SW,3.5,-,N/A,,Unknown,230,2013-02-24 22:51:00
6:51 PM,32.0,21.0,64,30.09,-9999.0,Calm,Calm,-,N/A,,Unknown,0,2013-02-24 23:51:00
7:51 PM,32.0,21.0,64,30.12,-9999.0,SW,4.6,-,N/A,,Unknown,230,2013-02-25 00:51:00
8:51 PM,30.9,21.9,69,30.13,-9999.0,SW,3.5,-,N/A,,Unknown,230,2013-02-25 01:51:00
9:51 PM,32.0,23.0,69,30.12,-9999.0,Calm,Calm,-,N/A,,Unknown,0,2013-02-25 02:51:00
10:51 PM,32.0,23.0,69,30.13,-9999.0,West,4.6,-,N/A,,Unknown,260,2013-02-25 03:51:00
11:51 PM,32.0,21.9,66,30.13,-9999.0,Calm,Calm,-,N/A,,Unknown,0,2013-02-25 04:51:00